Location: Castillon
(43.0896°N, 0.2156°E)
Time: 18:50:42
(UTC+00:00)

ATLAS CENTAUR R/B - Pass Details

Date: 16 June 2021
Orbit: 472 x 671 km, 64.6° (Epoch: 13 June)

Event Time Altitude Azimuth Distance (km) Brightness Sun altitude
Rises 23:16:28 0° 317° (NW) 2,820 5.9 -22.8°
Reaches altitude 10° 23:18:49 10° 307° (NW) 1,949 4.7 -22.9°
Enters shadow 23:22:33 33° 250° (WSW) 1,057 2.6 -23.0°
